Garrison, ND

12:03 PM CST on February 23, 2017 (GMT -0600)
Garrison

Weather History for KN60 - July, 2013

Change the Weather History Date:

Wednesday, July 3, 2013

  Actual Average Record
Temperature  
Mean Temperature 70 °F -  
Max Temperature 83 °F - 86 °F (2012)
Min Temperature 56 °F - 45 °F (1997)
Degree Days  
Heating Degree Days 0    
Cooling Degree Days 5    
Month to date cooling degree days 12  
Year to date cooling degree days 70  
Since 1 June cooling degree days 64  
Growing Degree Days 20 (Base 50)    
Moisture  
Dew Point 59 °F    
Average Humidity 65    
Maximum Humidity 87    
Minimum Humidity 43    
Precipitation  
Precipitation 0.00 in - 0.49 in (2003)
Month to date precipitation 0.00  
Year to date precipitation 16.69  
Sea Level Pressure  
Sea Level Pressure 29.89 in    
Wind  
Wind Speed 9 mph (SSE)    
Max Wind Speed 18 mph    
Max Gust Speed 23 mph    
T = Trace of Precipitation, MM = Missing Value Source: NWS Daily Summary

Daily Weather History Graph

Daily Weather History Graph

Search for Another Location

Airport or City:

Trip Planner

Search our weather history database for the weather conditions in past years. The results will help you decide how hot, cold, wet, or windy it might be!

Date:

Astronomy

Jul. 03, 2013 Rise Set
Actual Time 5:53 AM CDT 9:46 PM CDT
Civil Twilight 5:13 AM CDT 10:26 PM CDT
Nautical Twilight 4:17 AM CDT 11:21 PM CDT
Astronomical Twilight 2:53 AM CDT 12:45 AM CDT
Moon 2:41 AM CDT (7/3) 5:51 PM CDT (7/3)
Length of Visible Light 17h 13m
Length of Day
15h 53m
Waning Crescent, 18% of the Moon is Illuminated
Jul 3
Waning Crescent
Jul 8
New
Jul 15
First Quarter
Jul 22
Full
Jul 29
Last Quarter

Hourly Weather History & Observations

Time (CDT) Temp. Heat Index Dew Point Humidity Pressure Visibility Wind Dir Wind Speed Gust Speed Precip Events Conditions
12:52 AM 64.0 °F - 57.9 °F 80% 30.01 in - SE 3.5 mph - N/A   Unknown
1:52 AM 64.0 °F - 57.0 °F 78% 30.00 in - SE 3.5 mph - N/A   Unknown
2:52 AM 60.1 °F - 55.9 °F 86% 29.99 in - SE 5.8 mph - N/A   Unknown
3:52 AM 61.0 °F - 55.9 °F 83% 29.98 in - Calm Calm - N/A   Unknown
4:52 AM 61.0 °F - 55.0 °F 81% 29.97 in - Calm Calm - N/A   Unknown
5:52 AM 59.0 °F - 54.0 °F 83% 29.98 in - Calm Calm - N/A   Unknown
6:52 AM 59.0 °F - 55.0 °F 87% 29.98 in - East 4.6 mph - N/A   Unknown
7:52 AM 63.0 °F - 57.0 °F 81% 29.96 in - Calm Calm - N/A   Unknown
8:52 AM 66.0 °F - 55.9 °F 70% 29.95 in - SSE 10.4 mph - N/A   Unknown
9:52 AM 70.0 °F - 57.9 °F 65% 29.94 in - South 10.4 mph - N/A   Unknown
10:52 AM 73.9 °F - 61.0 °F 64% 29.91 in - SSE 12.7 mph - N/A   Unknown
11:52 AM 77.0 °F - 60.1 °F 56% 29.90 in - SSE 16.1 mph - N/A   Unknown
12:52 PM 80.1 °F 81.2 °F 62.1 °F 54% 29.89 in - South 13.8 mph - N/A   Unknown
1:52 PM 81.0 °F 81.3 °F 59.0 °F 47% 29.88 in - South 16.1 mph - N/A   Unknown
2:52 PM 82.0 °F 82.4 °F 60.1 °F 47% 29.86 in - South 15.0 mph 20.7 mph N/A   Unknown
3:52 PM 82.9 °F 82.8 °F 59.0 °F 44% 29.85 in - South 15.0 mph 21.9 mph N/A   Unknown
4:52 PM 82.9 °F 82.8 °F 59.0 °F 44% 29.83 in - South 12.7 mph - N/A   Unknown
5:52 PM 82.0 °F 82.0 °F 57.9 °F 44% 29.81 in - South 12.7 mph 18.4 mph N/A   Unknown
6:52 PM 81.0 °F 81.7 °F 61.0 °F 50% 29.80 in - SSE 9.2 mph - N/A   Unknown
7:52 PM 79.0 °F - 63.0 °F 58% 29.78 in - SSE 8.1 mph - N/A   Unknown
8:52 PM 73.9 °F - 64.0 °F 71% 29.77 in - SE 4.6 mph - N/A   Unknown
9:52 PM 71.1 °F - 60.1 °F 68% 29.76 in - SSE 4.6 mph - N/A   Unknown
10:52 PM 66.9 °F - 60.1 °F 79% 29.76 in - SSE 5.8 mph - N/A   Unknown
11:52 PM 64.9 °F - 59.0 °F 81% 29.75 in - SSE 9.2 mph - N/A   Unknown